TimeEDT,TemperatureF,Dew PointF,Humidity,Sea Level PressureIn,VisibilityMPH,Wind Direction,Wind SpeedMPH,Gust SpeedMPH,PrecipitationIn,Events,Conditions,WindDirDegrees,DateUTC
12:51 AM,75.9,61.0,60,30.07,-9999.0,West,6.9,-,N/A,,Unknown,260,2013-07-14 04:51:00
1:51 AM,75.9,60.1,58,30.09,-9999.0,Variable,6.9,-,N/A,,Unknown,0,2013-07-14 05:51:00
2:51 AM,75.0,60.1,60,30.09,-9999.0,Variable,5.8,-,N/A,,Unknown,0,2013-07-14 06:51:00
3:51 AM,73.0,61.0,66,30.10,-9999.0,WSW,8.1,-,N/A,,Unknown,240,2013-07-14 07:51:00
4:51 AM,71.1,62.1,73,30.10,-9999.0,SW,5.8,-,N/A,,Unknown,230,2013-07-14 08:51:00
5:51 AM,69.1,63.0,81,30.11,-9999.0,WSW,9.2,18.4,N/A,,Unknown,250,2013-07-14 09:51:00
6:51 AM,69.1,63.0,81,30.12,-9999.0,WSW,9.2,-,N/A,,Unknown,250,2013-07-14 10:51:00
7:51 AM,70.0,62.1,76,30.14,-9999.0,Calm,Calm,-,N/A,,Unknown,0,2013-07-14 11:51:00
8:51 AM,63.0,57.9,84,30.15,-9999.0,NNW,4.6,-,N/A,,Unknown,340,2013-07-14 12:51:00
9:51 AM,64.9,60.1,84,30.14,-9999.0,Calm,Calm,-,N/A,,Unknown,0,2013-07-14 13:51:00
10:51 AM,72.0,64.0,76,30.14,-9999.0,SW,3.5,-,N/A,,Unknown,230,2013-07-14 14:51:00
11:51 AM,71.1,63.0,75,30.16,-9999.0,Variable,3.5,-,N/A,,Unknown,0,2013-07-14 15:51:00
12:51 PM,71.1,63.0,75,30.16,-9999.0,WSW,3.5,-,N/A,,Unknown,240,2013-07-14 16:51:00
1:51 PM,73.0,64.0,73,30.16,-9999.0,North,3.5,-,N/A,,Unknown,360,2013-07-14 17:51:00
2:51 PM,71.1,63.0,75,30.16,-9999.0,Calm,Calm,-,N/A,,Unknown,0,2013-07-14 18:51:00
3:51 PM,66.9,61.0,81,30.16,-9999.0,Calm,Calm,-,N/A,,Unknown,0,2013-07-14 19:51:00
4:51 PM,71.1,62.1,73,30.16,-9999.0,Calm,Calm,-,N/A,,Unknown,0,2013-07-14 20:51:00
5:51 PM,75.9,64.0,67,30.15,-9999.0,Calm,Calm,-,N/A,,Unknown,0,2013-07-14 21:51:00
6:51 PM,73.0,62.1,68,30.15,-9999.0,Calm,Calm,-,N/A,,Unknown,0,2013-07-14 22:51:00
7:51 PM,70.0,61.0,73,30.16,-9999.0,Calm,Calm,-,N/A,,Unknown,0,2013-07-14 23:51:00
8:51 PM,72.0,66.0,81,30.17,-9999.0,Calm,Calm,-,N/A,,Unknown,0,2013-07-15 00:51:00
9:51 PM,68.0,64.0,87,30.18,-9999.0,SW,4.6,-,N/A,,Unknown,220,2013-07-15 01:51:00
10:51 PM,64.9,62.1,90,30.20,-9999.0,Calm,Calm,-,N/A,,Unknown,0,2013-07-15 02:51:00
11:51 PM,66.0,63.0,90,30.20,-9999.0,SW,3.5,-,N/A,,Unknown,230,2013-07-15 03:51:00